This is the latest recevied weather packets stored in our database for station/object VK2HN. If no packets are shown the sender has not sent any weather packets the latest 10 day(s).
| Time | Temp. | Humidity | Pressure | Rain* | Wind** | Luminosity | Snow |
|---|---|---|---|---|---|---|---|
| 1778126137 | 18.33° C | 31% | 1015.6 hPa | 0 mm | - | - | - |
| 1778125837 | 18.33° C | 32% | 1015.6 hPa | 0 mm | - | - | - |
| 1778125537 | 18.33° C | 32% | 1015.4 hPa | 0 mm | - | - | - |
| 1778125237 | 18.33° C | 32% | 1015.5 hPa | 0 mm | - | - | - |
| 1778124937 | 17.78° C | 31% | 1015.3 hPa | 0 mm | - | - | - |
| 1778124637 | 18.33° C | 30% | 1015.4 hPa | 0 mm | - | - | - |
| 1778124337 | 18.33° C | 31% | 1015.5 hPa | 0 mm | - | - | - |
| 1778124037 | 18.89° C | 29% | 1015.2 hPa | 0 mm | - | - | - |
| 1778123737 | 18.89° C | 31% | 1015.2 hPa | 0 mm | - | - | - |
| 1778123437 | 18.89° C | 32% | 1015.2 hPa | 0 mm | - | - | - |
| 1778123137 | 18.33° C | 30% | 1015.2 hPa | 0 mm | - | - | - |
| 1778122837 | 18.33° C | 34% | 1015.4 hPa | 0 mm | - | - | - |
| 1778122538 | 18.33° C | 31% | 1015.1 hPa | 0 mm | - | - | - |
| 1778122237 | 18.89° C | 32% | 1015.1 hPa | 0 mm | - | - | - |
| 1778121937 | 18.89° C | 35% | 1015.1 hPa | 0 mm | - | - | - |
| 1778121637 | 18.89° C | 34% | 1015.3 hPa | 0 mm | - | - | - |
| 1778121337 | 18.89° C | 34% | 1015.3 hPa | 0 mm | - | - | - |
| 1778121037 | 18.33° C | 36% | 1015.6 hPa | 0 mm | - | - | - |
| 1778120737 | 18.33° C | 37% | 1015.5 hPa | 0 mm | - | - | - |
| 1778120437 | 17.78° C | 40% | 1015.5 hPa | 0 mm | - | - | - |
| 1778120137 | 17.22° C | 43% | 1015.5 hPa | 0 mm | - | - | - |
| 1778119837 | 16.67° C | 37% | 1015.5 hPa | 0 mm | - | - | - |
| 1778119537 | 17.78° C | 36% | 1015.5 hPa | 0 mm | - | - | - |
| 1778119238 | 18.89° C | 35% | 1015.4 hPa | 0 mm | - | - | - |
| 1778118938 | 19.44° C | 47% | 1015.5 hPa | 0 mm | - | - | - |
* Rain latest hour (hover to see other rain measurements)
** Current wind speed in m/s (hover to see current wind gust speed)